LA8QT Lodingen NO current weather conditions

sailwx.info

Wind from 216

Air temperature 6.1° C
Dewpoint 4.6° C

Last reported at 2014-Sep-15 23:47 UTC.
Time now 2014-Sep-16 00:55 UTC

Location: N 68°28' E 016°04'.
View on Google Maps.

See reports from other nearby stations

  
Tides and Currents Weather Stations Pressure Air Temp Water Temp Dewpoint Dewpoint Depression Visibility Wind Speed Wind Dir Waves Ship Positions
date/time (UTC)wind fromknots sea level pressurealtimeterstation pressurevisibilityair tempwater tempwave heightnotes
2014-Sep-15 23:47 216 6.1
2014-Sep-15 23:32 217 1 5.6
2014-Sep-15 23:17 217 5.6
2014-Sep-15 23:02 217 5.6
2014-Sep-15 22:47 217 6.1
2014-Sep-15 22:32 217 6.1
2014-Sep-15 22:17 217 6.7
2014-Sep-15 22:02 217 6.1
2014-Sep-15 21:47 217 6.1
2014-Sep-15 21:32 217 6.1
2014-Sep-15 21:17 217 6.7
2014-Sep-15 21:02 217 6.7
2014-Sep-15 20:47 217 6.7
2014-Sep-15 20:32 217 6.7
2014-Sep-15 20:17 217 7.2
2014-Sep-15 20:02 217 1 7.2
2014-Sep-15 19:47 217 0 6.7
2014-Sep-15 19:32 217 6.7
2014-Sep-15 19:17 217 0 6.7
2014-Sep-15 19:02 217 2 6.7
2014-Sep-15 18:32 217 0 7.8
2014-Sep-15 18:17 217 8.3
2014-Sep-15 18:01 217 8.3
2014-Sep-15 17:47 217 8.3
2014-Sep-15 17:32 217 8.3
2014-Sep-15 17:17 217 0 8.3
2014-Sep-15 17:02 217 8.9
2014-Sep-15 16:46 217 9.4
2014-Sep-15 16:31 217 9.4
2014-Sep-15 16:16 217 10.0
2014-Sep-15 16:01 217 10.6
2014-Sep-15 15:46 217 0 11.1
2014-Sep-15 15:31 217 11.1
2014-Sep-15 15:16 215 0 11.7
2014-Sep-15 15:01 215 0 11.1
2014-Sep-15 14:46 215 0 11.1
2014-Sep-15 14:31 215 0 11.7
2014-Sep-15 14:16 215 0 11.7
2014-Sep-15 14:01 214 0 11.7
2014-Sep-15 13:46 215 2 11.1
2014-Sep-15 13:31 215 1 11.1
2014-Sep-15 13:16 214 0 11.7
2014-Sep-15 13:01 214 1 11.7
2014-Sep-15 12:46 214 0 11.7
2014-Sep-15 12:31 214 1 11.7
2014-Sep-15 12:16 215 1 11.7
2014-Sep-15 12:01 214 2 11.1
2014-Sep-15 11:46 213 0 11.7
2014-Sep-15 11:31 213 1 11.7
2014-Sep-15 11:16 211 1 11.7
2014-Sep-15 11:01 210 0 11.7
2014-Sep-15 10:46 209 1 11.7
2014-Sep-15 10:31 209 0 11.1
2014-Sep-15 10:16 209 1 11.7
2014-Sep-15 10:01 209 3 11.1
2014-Sep-15 09:46 209 3 11.1
2014-Sep-15 09:31 210 2 11.1
2014-Sep-15 09:16 210 1 10.6
2014-Sep-15 09:01 210 2 10.6
2014-Sep-15 08:46 210 2 10.6
2014-Sep-15 08:31 210 2 10.6
2014-Sep-15 08:16 210 0 11.1
2014-Sep-15 08:01 210 1 10.6
2014-Sep-15 07:46 210 2 10.6
2014-Sep-15 07:31 210 5 10.0
2014-Sep-15 07:16 214 2 10.6
2014-Sep-15 07:00 216 2 10.6
2014-Sep-15 06:46 212 3 10.0
2014-Sep-15 06:30 213 3 10.0
2014-Sep-15 06:15 219 4 9.4
2014-Sep-15 06:00 225 2 9.4
2014-Sep-15 05:45 267 0 9.4
2014-Sep-15 05:30 273 0 8.9
2014-Sep-15 05:15 279 0 8.9
2014-Sep-15 05:00 282 0 8.3
2014-Sep-15 04:45 283 0 8.3
2014-Sep-15 04:30 283 8.3
2014-Sep-15 04:15 284 8.3
2014-Sep-15 04:00 284 8.9
2014-Sep-15 03:45 284 8.9
2014-Sep-15 03:30 284 8.9
2014-Sep-15 03:15 284 8.9
2014-Sep-15 03:00 283 8.9
2014-Sep-15 02:45 284 8.3
2014-Sep-15 02:30 283 0 8.3
2014-Sep-15 02:15 284 0 8.9
2014-Sep-15 02:00 284 0 8.9
2014-Sep-15 01:45 284 0 8.9
2014-Sep-15 01:30 281 0 8.9
2014-Sep-15 01:15 260 0 8.3
2014-Sep-15 01:00 259 8.3
2014-Sep-15 00:45 259 7.8
2014-Sep-15 00:30 259 8.3
2014-Sep-15 00:15 259 7.8
2014-Sep-15 00:00 259 7.8
2014-Sep-14 23:45 259 7.8
2014-Sep-14 23:30 259 7.8
2014-Sep-14 23:15 259 8.3
2014-Sep-14 23:00 259 7.2
2014-Sep-14 22:45 259 7.8
2014-Sep-14 22:30 259 8.3
2014-Sep-14 22:15 259 8.3
2014-Sep-14 22:00 259 8.3
2014-Sep-14 21:45 259 7.2
2014-Sep-14 21:30 259 8.3
2014-Sep-14 21:15 261 7.8
2014-Sep-14 21:00 263 8.3
2014-Sep-14 20:45 267 8.3
2014-Sep-14 20:30 289 8.9
2014-Sep-14 20:15 289 2 8.9
2014-Sep-14 20:00 289 0 8.3
2014-Sep-14 19:45 305 0 9.4
2014-Sep-14 19:30 305 0 9.4
2014-Sep-14 19:15 282 0 8.9
2014-Sep-14 19:00 269 0 8.9
2014-Sep-14 18:45 282 0 8.9
2014-Sep-14 18:29 289 8.9
2014-Sep-14 18:14 294 8.9
2014-Sep-14 17:59 294 9.4
2014-Sep-14 17:44 299 0 10.0
2014-Sep-14 17:29 289 8.9
2014-Sep-14 17:14 282 9.4
2014-Sep-14 16:59 282 10.0
2014-Sep-14 16:44 282 1 10.6
2014-Sep-14 16:29 271 0 10.6
2014-Sep-14 16:14 305 4 11.1
2014-Sep-14 15:59 294 7 11.1
2014-Sep-14 15:44 289 9 11.1
2014-Sep-14 15:29 294 10 11.1
2014-Sep-14 15:14 264 6 11.1
2014-Sep-14 14:59 275 6 11.1
2014-Sep-14 14:44 294 6 11.7
2014-Sep-14 14:29 289 7 11.7
2014-Sep-14 14:14 265 3 11.7
2014-Sep-14 13:59 299 6 11.7
2014-Sep-14 13:44 268 4 12.2
2014-Sep-14 13:29 314 6 11.7
2014-Sep-14 13:14 259 8 12.2
2014-Sep-14 12:59 289 6 12.2
2014-Sep-14 12:44 285 8 12.2
2014-Sep-14 12:29 267 6 12.2
2014-Sep-14 12:14 328 10 11.7
2014-Sep-14 11:59 294 12 11.7
2014-Sep-14 11:44 294 11 11.7
2014-Sep-14 11:29 257 11 11.7
2014-Sep-14 11:14 294 12 11.7
2014-Sep-14 10:59 262 9 11.7
2014-Sep-14 10:44 267 7 11.7
2014-Sep-14 10:29 303 7 11.7
2014-Sep-14 10:14 270 6 11.7
2014-Sep-14 09:59 338 7 11.7
2014-Sep-14 09:44 280 11 11.7
2014-Sep-14 09:29 265 10 11.7
2014-Sep-14 09:14 276 7 11.1
2014-Sep-14 08:59 258 6 11.1
2014-Sep-14 08:44 271 9 11.1
2014-Sep-14 08:28 256 6 10.6
2014-Sep-14 08:13 264 1 9.4
2014-Sep-14 07:58 261 7 9.4
2014-Sep-14 07:43 247 0 11.1
2014-Sep-14 07:28 263 8 11.1
2014-Sep-14 07:13 275 10 11.1
2014-Sep-14 06:58 284 7 10.6
2014-Sep-14 06:43 249 8 10.6
2014-Sep-14 06:28 272 4 10.6
2014-Sep-14 06:13 272 3 10.6
2014-Sep-14 05:58 255 6 10.6
2014-Sep-14 05:43 289 5 10.0
2014-Sep-14 05:28 278 7 10.0
2014-Sep-14 05:13 280 6 10.0
2014-Sep-14 04:58 289 7 10.0
2014-Sep-14 04:43 311 6 10.0
2014-Sep-14 04:28 289 12 10.6
2014-Sep-14 04:13 289 11 10.6
2014-Sep-14 03:58 315 11 10.6
2014-Sep-14 03:43 253 10 10.6
2014-Sep-14 03:28 306 7 10.6
2014-Sep-14 03:13 284 9 10.6
2014-Sep-14 02:58 294 11 10.6
2014-Sep-14 02:43 278 6 10.6
2014-Sep-14 02:28 266 7 10.6
2014-Sep-14 02:13 289 6 10.6
2014-Sep-14 01:58 289 7 11.1
2014-Sep-14 01:43 318 8 11.1
2014-Sep-14 01:28 294 9 11.1
2014-Sep-14 01:13 276 2 10.6
2014-Sep-14 00:58 274 8 11.1
2014-Sep-14 00:43 270 11 11.1
2014-Sep-14 00:28 289 11 11.1
2014-Sep-14 00:13 272 6 10.6